Weather History for Bloomington, IN

Change the Weather History Date:

Sunday, February 15, 2004

  Actual Average Record
Temperature  
Mean Temperature 24 °F 33 °F  
Max Temperature 30 °F 43 °F 68 °F (2005)
Min Temperature 17 °F 23 °F 2 °F (2014)
Degree Days  
Heating Degree Days 41 32  
Month to date heating degree days 503  
Since 1 July heating degree days 3678  
Cooling Degree Days 0 0  
Month to date cooling degree days 0  
Year to date cooling degree days 0  
Moisture  
Dew Point 17 °F    
Average Humidity 74    
Maximum Humidity 88    
Minimum Humidity 53    
Precipitation  
Precipitation 0.00 in 0.10 in 0.23 in (2003)
Month to date precipitation 1.61  
Year to date precipitation 4.92  
Sea Level Pressure  
Sea Level Pressure 30.20 in    
Wind  
Wind Speed 12 mph (NNE)    
Max Wind Speed 18 mph    
Max Gust Speed 23 mph    
Visibility 9 miles    
Events      
T = Trace of Precipitation, MM = Missing Value Source: NWS Daily Summary

Daily Weather History Graph

Daily Weather History Graph

Search for Another Location

Airport:

Trip Planner

Search our weather history database for the weather conditions in past years. The results will help you decide how hot, cold, wet, or windy it might be!

Date:

Astronomy

Feb. 15, 2004 Rise Set
Actual Time 7:38 AM EST 6:23 PM EST
Civil Twilight 7:11 AM EST 6:50 PM EST
Nautical Twilight 6:40 AM EST 7:21 PM EST
Astronomical Twilight 6:09 AM EST 7:52 PM EST
Moon 3:56 AM EST (2/15) 1:07 PM EST (2/15)
Length of Visible Light 11h 39m
Length of Day
10h 44m
Waning Crescent, 26% of the Moon is Illuminated
Feb 15
Waning Crescent
Feb 20
New
Feb 27
First Quarter
Mar 6
Full
Mar 13
Last Quarter

Hourly Weather History & Observations

Time (EST) Temp. Windchill Dew Point Humidity Pressure Visibility Wind Dir Wind Speed Gust Speed Precip Events Conditions
12:53 AM 27.0 °F 18.0 °F 23.0 °F 85% 30.06 in 7.0 mi NNE 9.2 mph - N/A   Clear
1:53 AM 26.1 °F 17.6 °F 21.9 °F 84% 30.08 in 7.0 mi NNE 8.1 mph - N/A   Clear
2:53 AM 27.0 °F 15.2 °F 23.0 °F 85% 30.08 in 7.0 mi NNE 15.0 mph - N/A   Clear
3:13 AM 26.6 °F 16.8 °F 23.0 °F 86% 30.07 in 7.0 mi NNE 10.4 mph - N/A   Mostly Cloudy
3:22 AM 26.6 °F 16.8 °F 23.0 °F 86% 30.07 in 7.0 mi NNE 10.4 mph - N/A   Scattered Clouds
3:53 AM 25.0 °F 14.8 °F 21.9 °F 88% 30.09 in 7.0 mi NNE 10.4 mph - N/A   Clear
4:53 AM 24.1 °F 13.1 °F 21.0 °F 88% 30.09 in 9.0 mi NNE 11.5 mph - N/A   Clear
5:13 AM 24.8 °F 14.0 °F 21.2 °F 86% 30.08 in 10.0 mi NNE 11.5 mph - N/A   Mostly Cloudy
5:27 AM 24.8 °F 14.0 °F 19.4 °F 80% 30.09 in 10.0 mi NNE 11.5 mph - N/A   Scattered Clouds
5:53 AM 24.1 °F 13.7 °F 19.9 °F 84% 30.12 in 10.0 mi NNE 10.4 mph - N/A   Clear
6:42 AM 24.8 °F 14.6 °F 19.4 °F 80% 30.12 in 10.0 mi NE 10.4 mph - N/A   Mostly Cloudy
6:53 AM 24.1 °F 13.1 °F 19.9 °F 84% 30.14 in 10.0 mi NE 11.5 mph - N/A   Overcast
7:22 AM 24.8 °F 12.9 °F 19.4 °F 80% 30.12 in 10.0 mi NE 13.8 mph - N/A   Overcast
7:53 AM 24.1 °F 13.7 °F 21.0 °F 88% 30.17 in 10.0 mi NNE 10.4 mph - N/A   Overcast
8:53 AM 25.0 °F 14.2 °F 21.0 °F 85% 30.18 in 9.0 mi NNE 11.5 mph - N/A   Overcast
9:53 AM 25.0 °F 11.7 °F 21.0 °F 85% 30.19 in 8.0 mi NNE 17.3 mph 20.7 mph N/A   Overcast
10:53 AM 26.1 °F 13.1 °F 19.9 °F 78% 30.22 in 10.0 mi NNE 17.3 mph 21.9 mph N/A   Overcast
11:53 AM 28.0 °F 16.1 °F 19.9 °F 72% 30.23 in 10.0 mi NNE 16.1 mph 20.7 mph N/A   Mostly Cloudy
12:02 PM 28.4 °F 16.6 °F 19.4 °F 69% 30.20 in 10.0 mi NE 16.1 mph - N/A   Partly Cloudy
12:53 PM 28.9 °F 17.7 °F 19.0 °F 67% 30.22 in 10.0 mi NNE 15.0 mph - N/A   Partly Cloudy
1:53 PM 30.9 °F 19.8 °F 19.0 °F 61% 30.22 in 10.0 mi North 16.1 mph 23.0 mph N/A   Clear
2:53 PM 30.0 °F 17.9 °F 17.1 °F 59% 30.22 in 10.0 mi NNE 18.4 mph - N/A   Clear
3:53 PM 30.0 °F 18.3 °F 16.0 °F 56% 30.25 in 10.0 mi NNE 17.3 mph 21.9 mph N/A   Clear
4:53 PM 28.0 °F 17.0 °F 14.0 °F 56% 30.26 in 10.0 mi NNE 13.8 mph - N/A   Clear
5:53 PM 26.1 °F 14.5 °F 10.9 °F 53% 30.30 in 10.0 mi North 13.8 mph - N/A   Clear
6:53 PM 23.0 °F 11.1 °F 10.0 °F 58% 30.34 in 10.0 mi North 12.7 mph - N/A   Clear
7:53 PM 21.0 °F 9.9 °F 8.1 °F 57% 30.38 in 10.0 mi NNE 10.4 mph - N/A   Clear
8:53 PM 19.0 °F 9.0 °F 8.1 °F 62% 30.40 in 10.0 mi North 8.1 mph - N/A   Clear
9:53 PM 19.0 °F 8.2 °F 6.1 °F 57% 30.40 in 10.0 mi NNE 9.2 mph - N/A   Clear
10:53 PM 18.0 °F 6.9 °F 6.1 °F 60% 30.40 in 10.0 mi NE 9.2 mph - N/A   Clear
11:53 PM 17.1 °F 6.6 °F 7.0 °F 65% 30.39 in 10.0 mi NE 8.1 mph - N/A   Clear